This demonstration page uses our WeatherBlox Daily Observations layout. Learn more.

Left ArrowRight Arrow

39.01783, -85.05884

Hourly Observations for February 16, 2017

Temp ( °F °C ) Dew Point ( °F °C ) Humidity (%) Winds ( mph kmh ) Pressure ( in mb ) Visibility ( mi km ) Precip ( " mm )
12:52 am 00:52 Partly Cloudy 27 -2.8 18 -7.8 69 69 W 5 7 29.91 1013 10 16 0.00 0.00
1:52 am 01:52 Cloudy 27 -2.8 19 -7.2 72 72 W 5 7 29.91 1013 10 16 0.00 0.00
2:52 am 02:52 Cloudy 29 -1.7 20 -6.7 69 69 W 5 7 29.91 1013 10 16 0.00 0.00
3:52 am 03:52 Cloudy 29 -1.7 20 -6.7 69 69 W 5 7 29.90 1012 10 16 0.00 0.00
4:52 am 04:52 Cloudy 29 -1.7 20 -6.7 69 69 W 5 7 29.91 1013 10 16 0.00 0.00
5:52 am 05:52 Cloudy 30 -1.1 18 -7.8 61 61 N 6 9 29.93 1014 10 16 0.00 0.00
6:52 am 06:52 Cloudy 30 -1.1 19 -7.2 64 64 WNW 3 6 29.95 1014 10 16 0.00 0.00
7:52 am 07:52 Cloudy 30 -1.1 20 -6.7 66 66 W 5 7 29.97 1015 10 16 0.00 0.00
8:52 am 08:52 Cloudy 31 -0.6 20 -6.7 64 64 W 7 11 29.98 1015 10 16 0.00 0.00
9:52 am 09:52 Cloudy 33 0.6 20 -6.7 58 58 WNW 7 11 30.00 1016 10 16 0.00 0.00
10:52 am 10:52 Cloudy 34 1.1 17 -8.3 50 50 NW 9 15 30.01 1016 10 16 0.00 0.00
11:52 am 11:52 Cloudy 34 1.1 18 -7.8 52 52 W 6 9 30.01 1016 10 16 0.00 0.00
12:52 pm 12:52 Cloudy 35 1.7 16 -8.9 46 46 VRB 6 9 30.00 1016 10 16 0.00 0.00
1:52 pm 13:52 Cloudy 37 2.8 17 -8.3 44 44 WSW 7 11 29.97 1015 10 16 0.00 0.00
2:52 pm 14:52 Cloudy 38 3.3 17 -8.3 43 43 W 6 9 29.97 1015 10 16 0.00 0.00
3:52 pm 15:52 Mostly Cloudy 41 5 18 -7.8 39 39 SSW 7 11 29.96 1015 10 16 0.00 0.00
4:52 pm 16:52 Mostly Cloudy 42 5.6 17 -8.3 36 36 WSW 6 9 29.93 1013 10 16 0.00 0.00
5:52 pm 17:52 Partly Cloudy 38 3.3 18 -7.8 44 44 SSE 3 6 29.91 1013 10 16 0.00 0.00
6:52 pm 18:52 Mostly Cloudy 36 2.2 20 -6.7 52 52 SE 7 11 29.90 1012 10 16 0.00 0.00
7:52 pm 19:52 Mostly Cloudy 36 2.2 19 -7.2 50 50 SSE 5 7 29.89 1012 10 16 0.00 0.00
8:52 pm 20:52 Cloudy 37 2.8 19 -7.2 48 48 SE 7 11 29.88 1012 10 16 0.00 0.00
9:52 pm 21:52 Cloudy 36 2.2 20 -6.7 52 52 SSE 6 9 29.88 1012 10 16 0.00 0.00
10:52 pm 22:52 Cloudy 38 3.3 21 -6.1 51 51 S 7 11 29.89 1012 10 16 0.00 0.00
11:52 pm 23:52 Cloudy 40 4.4 22 -5.6 49 49 S 9 15 29.87 1012 10 16 0.00 0.00

Powered by AerisWeather